This demonstration page uses our WeatherBlox Daily Observations layout. Learn more.

Left ArrowRight Arrow

Hourly Observations for February 10, 2017

Temp ( °F °C ) Dew Point ( °F °C ) Humidity (%) Winds ( mph kmh ) Pressure ( in mb ) Visibility ( mi km ) Precip ( " mm )
12:51 am 00:51 Clear 48 8.9 38 3.3 68 68 N N/A 30.01 1016 10 16 N/A
1:51 am 01:51 Clear 48 8.9 37 2.8 66 66 N N/A 30.01 1016 10 16 N/A
2:51 am 02:51 Clear 54 12.2 36 2.2 51 51 SE 10 17 29.98 1015 10 16 N/A
3:51 am 03:51 Clear 52 11.1 35 1.7 53 53 SSE 12 19 29.98 1015 10 16 N/A
4:51 am 04:51 Clear 53 11.7 35 1.7 51 51 SSE 13 20 29.98 1015 10 16 N/A
5:51 am 05:51 Clear 53 11.7 35 1.7 51 51 SE 12 19 30.00 1016 10 16 N/A
6:51 am 06:51 Clear 49 9.4 35 1.7 59 59 N N/A 30.04 1017 10 16 N/A
7:51 am 07:51 Sunny 46 7.8 35 1.7 66 66 NNW 3 6 30.07 1018 10 16 N/A
8:51 am 08:51 Sunny 55 12.8 37 2.8 51 51 NNW 3 6 30.09 1019 10 16 N/A
9:51 am 09:51 Sunny 61 16.1 37 2.8 41 41 N N/A 30.09 1019 10 16 N/A
10:51 am 10:51 Sunny 66 18.9 38 3.3 36 36 N N/A 30.08 1019 10 16 N/A
11:51 am 11:51 Sunny 74 23.3 35 1.7 24 24 SE 6 9 30.03 1017 10 16 N/A
12:51 pm 12:51 Sunny 78 25.6 35 1.7 21 21 N N/A 30.00 1016 10 16 N/A
1:51 pm 13:51 Sunny 79 26.1 35 1.7 20 20 N N/A 29.96 1015 10 16 N/A
2:51 pm 14:51 Sunny 81 27.2 34 1.1 18 18 VRB 6 9 29.93 1013 10 16 N/A
3:51 pm 15:51 Sunny 81 27.2 34 1.1 18 18 W 6 9 29.92 1013 10 16 N/A
4:51 pm 16:51 Sunny 81 27.2 35 1.7 19 19 NW 9 15 29.91 1013 10 16 N/A
5:51 pm 17:51 Sunny 74 23.3 38 3.3 27 27 NW 8 13 29.92 1013 10 16 N/A
6:51 pm 18:51 Clear 66 18.9 38 3.3 36 36 N 8 13 29.95 1014 10 16 N/A
7:51 pm 19:51 Clear 62 16.7 37 2.8 40 40 N 5 7 29.97 1015 10 16 N/A
8:51 pm 20:51 Clear 59 15 37 2.8 44 44 SE 7 11 29.96 1015 10 16 N/A
9:51 pm 21:51 Clear 57 13.9 37 2.8 47 47 E 5 7 29.97 1015 10 16 N/A
10:51 pm 22:51 Clear 54 12.2 37 2.8 53 53 ESE 6 9 29.97 1015 10 16 N/A
11:51 pm 23:51 Clear 53 11.7 36 2.2 52 52 E 6 9 29.96 1014 10 16 N/A

Powered by AerisWeather